Weather History for KXNA - May, 2014

Change the Weather History Date:

Monday, May 26, 2014

  Actual Average Record
Temperature  
Mean Temperature 72 °F -  
Max Temperature 79 °F - - ()
Min Temperature 66 °F - - ()
Cooling Degree Days 8    
Growing Degree Days 22 (Base 50)    
Moisture  
Dew Point 67 °F    
Average Humidity 88    
Maximum Humidity 100    
Minimum Humidity 69    
Precipitation  
Precipitation 0.00 in - - ()
Sea Level Pressure  
Sea Level Pressure 30.04 in    
Wind  
Wind Speed 5 mph (South)    
Max Wind Speed 15 mph    
Max Gust Speed 20 mph    
Visibility 9 miles    
Events Fog , Rain    
T = Trace of Precipitation, MM = Missing Value Source: NWS Daily Summary

Daily Weather History Graph

Daily Weather History Graph

Search for Another Location

Airport or City:

Trip Planner

Search our weather history database for the weather conditions in past years. The results will help you decide how hot, cold, wet, or windy it might be!

Date:

Astronomy

May. 26, 2014 Rise Set
Actual Time 6:03 AM CDT 8:25 PM CDT
Civil Twilight 5:34 AM CDT 8:54 PM CDT
Nautical Twilight 4:57 AM CDT 9:31 PM CDT
Astronomical Twilight 4:18 AM CDT 10:11 PM CDT
Moon 4:41 AM CDT (5/26) 6:32 PM CDT (5/26)
Length of Visible Light 15h 20m
Length of Day
14h 21m
Waning Crescent, 5% of the Moon is Illuminated
May 26
Waning Crescent
May 28
New
Jun 5
First Quarter
Jun 12
Full
Jun 19
Last Quarter

Hourly Weather History & Observations

Time (CDT) Temp. Dew Point Humidity Pressure Visibility Wind Dir Wind Speed Gust Speed Precip Events Conditions
12:53 AM 66.9 °F 64.9 °F 93% 30.01 in 10.0 mi SSE 4.6 mph - N/A   Partly Cloudy
1:53 AM 68.0 °F 66.0 °F 93% 30.01 in 10.0 mi Calm Calm - N/A   Mostly Cloudy
2:53 AM 68.0 °F 66.0 °F 93% 30.00 in 10.0 mi SSE 3.5 mph - N/A   Mostly Cloudy
3:53 AM 68.0 °F 66.0 °F 93% 29.99 in 10.0 mi SSW 4.6 mph - N/A   Scattered Clouds
4:53 AM 66.9 °F 66.0 °F 97% 30.00 in 9.0 mi South 3.5 mph - N/A   Scattered Clouds
5:53 AM 66.9 °F 66.0 °F 97% 30.01 in 9.0 mi ESE 3.5 mph - N/A   Partly Cloudy
6:53 AM 68.0 °F 66.0 °F 93% 30.02 in 10.0 mi SSE 3.5 mph - N/A   Clear
7:53 AM 69.1 °F 66.0 °F 90% 30.03 in 10.0 mi South 3.5 mph - N/A   Clear
8:53 AM 71.1 °F 66.9 °F 87% 30.04 in 10.0 mi South 4.6 mph - N/A   Partly Cloudy
9:53 AM 73.9 °F 68.0 °F 82% 30.04 in 10.0 mi South 8.1 mph - N/A   Partly Cloudy
10:53 AM 75.9 °F 66.9 °F 74% 30.04 in 10.0 mi South 9.2 mph - N/A   Partly Cloudy
11:51 AM 77.0 °F 66.2 °F 69% 30.09 in 10.0 mi South 11.5 mph 17.3 mph N/A   Mostly Cloudy
11:53 AM 77.0 °F 66.9 °F 71% 30.05 in 10.0 mi South 11.5 mph - N/A   Mostly Cloudy
12:05 PM 77.0 °F 68.0 °F 74% 30.09 in 10.0 mi SSW 9.2 mph - N/A   Mostly Cloudy
12:53 PM 79.0 °F 69.1 °F 72% 30.03 in 10.0 mi South 15.0 mph 19.6 mph N/A   Scattered Clouds
1:53 PM 77.0 °F 66.9 °F 71% 30.01 in 10.0 mi South 12.7 mph - N/A   Mostly Cloudy
2:53 PM 75.0 °F 66.9 °F 76% 30.02 in 10.0 mi SSW 6.9 mph - N/A   Mostly Cloudy
3:11 PM 71.6 °F 68.0 °F 88% 30.06 in 1.8 mi WSW 13.8 mph - 0.12 in Rain Heavy Rain
3:21 PM 68.0 °F 68.0 °F 100% 30.06 in 0.5 mi West 13.8 mph - 0.55 in Fog , Rain Heavy Rain
3:24 PM 66.2 °F 66.2 °F 100% 30.07 in 0.2 mi West 10.4 mph - 0.70 in Fog , Rain Heavy Rain
4:53 PM 69.8 °F 69.8 °F 100% 30.04 in 10.0 mi West 3.5 mph - N/A   Clear
5:53 PM 69.8 °F 66.2 °F 88% 30.03 in 10.0 mi Calm Calm - N/A   Clear
6:53 PM 69.8 °F 64.4 °F 83% 30.04 in 10.0 mi ESE 3.5 mph - N/A   Mostly Cloudy
7:53 PM 68.0 °F 66.2 °F 94% 30.05 in 10.0 mi Calm Calm - N/A   Partly Cloudy
8:53 PM 66.2 °F 66.2 °F 100% 30.06 in 10.0 mi NNW 3.5 mph - N/A   Mostly Cloudy
9:53 PM 66.2 °F 64.4 °F 94% 30.07 in 10.0 mi NNE 5.8 mph - N/A   Mostly Cloudy
10:52 PM 66.2 °F 64.4 °F 94% 30.07 in 10.0 mi Calm Calm - N/A   Scattered Clouds